Regional Weather Roundup
Issued by NWS

Home | Current Version | Previous Version | Text Only | Print | Product List | Glossary On
Versions: 1 2 3 4 5 6 7 8 9 10 11 12 13 14 15 16 17 18 19 20 21 22 23 24 25 26 27 28 29 30 31 32 33 34 35 36 37 38 39 40 41 42 43 44 45 46 47 48 49 50
000
ASUS43 KLSX 160307
RWRMO

WEATHER SUMMARY FOR MISSOURI
NATIONAL WEATHER SERVICE SPRINGFIELD MO
1000 PM CDT MON SEP 15 2014

NOTE: "FAIR" INDICATES FEW OR NO CLOUDS BELOW 12,000 FEET WITH NO
       SIGNIFICANT WEATHER AND/OR OBSTRUCTIONS TO VISIBILITY.
       CURRENT SKY AND/OR WEATHER CONDITIONS ARE NOT AVAILABLE FOR
       CHILLICOTHE AND FARMINGTON.

MOZ001>031-035>038-043-044-053-054-160400-
...NORTHERN AND WESTERN MISSOURI...

CITY           SKY/WX    TMP DP  RH WIND       PRES   REMARKS
KANSAS CTY INT CLEAR     53  50  89 N7        30.23R
KANSAS C DTWN  CLEAR     57  50  77 NE6       30.23R
LEE`S SUMMIT   MOCLDY    57  51  80 NE7       30.23R
ST JOSEPH      PTCLDY    53  50  89 N7        30.25R
CHILLICOTHE      N/A     52  49  89 CALM      30.24R
KIRKSVILLE     CLOUDY    54  51  90 N8        30.23R

$$
MOZ066>068-077>081-088>096-101>105-160400-
...SOUTHWEST MISSOURI...

CITY           SKY/WX    TMP DP  RH WIND       PRES   REMARKS
SPRINGFIELD    CLOUDY    72  65  78 N12       30.16R
JOPLIN         CLOUDY    68  66  93 NE8       30.17R

$$
MOZ032>034-039>042-045>050-055>058-069>072-160400-
...CENTRAL MISSOURI...

CITY           SKY/WX    TMP DP  RH WIND       PRES   REMARKS
COLUMBIA       CLOUDY    62  58  86 N14       30.18R
JEFFERSON CITY CLOUDY    65  59  81 CALM      30.17R
ROLLA          CLOUDY    63  57  81 NE7       30.16R
SEDALIA        CLOUDY    61  54  77 N13       30.21R
WHITEMAN AFB   PTCLDY    59  53  80 N10       30.19S
OSAGE BEACH    CLOUDY    64  57  77 NE3       30.18R

$$
MOZ051-052-059>065-160400-
...EAST CENTRAL MISSOURI...

CITY           SKY/WX    TMP DP  RH WIND       PRES   REMARKS
ST LOUIS INTL  CLOUDY    63  59  87 N7        30.15R
SPIRIT OF STL  CLOUDY    63  59  87 N3        30.15R
ST CHARLES     MOCLDY    61  58  90 N6        30.14S

$$
MOZ072>076-082>087-097>100-106>115-160400-
...SOUTH CENTRAL AND SOUTHEAST MISSOURI...

CITY           SKY/WX    TMP DP  RH WIND       PRES   REMARKS
CAPE GIRARDEAU CLOUDY    70  65  84 SW5       30.10S
FARMINGTON     CLOUDY    66  64  94 N10       30.16R
POPLAR BLUFF   MOCLDY    68  63  84 NW3       30.09R
WEST PLAINS    CLOUDY    72  67  84 NE6       30.15R

$$



USA.gov is the U.S. government's official web portal to all federal, state and local government web resources and services.